Location: Forli
(44.2227°N, 12.0407°E)
Time: 16:08:21
(UTC+01:00)

BlueWalker 3 - Pass Details

Date: 23 February 2026
Orbit: 451 x 458 km, 53.2° (Epoch: 6 March)

Event Time Altitude Azimuth Distance (km) Brightness Sun altitude
Exits shadow 05:13:20 - 182° (S) 2,403 5.3 -19.7°
Reaches altitude 10° 05:16:24 10° 151° (SSE) 1,592 4.8 -19.1°
Maximum altitude 05:17:49 12° 128° (SE) 1,475 4.9 -18.9°
Drops below altitude 10° 05:19:15 10° 104° (ESE) 1,595 5.6 -18.6°
Sets 05:22:30 0° 72° (ENE) 2,472 7.0 -18.1°
